�������l�o���
Date,Time,MP-1(��Sv/h),MP-2(��Sv/h),MP-3(��Sv/h),MP-4(��Sv/h),MP-5(��Sv/h),MP-6(��Sv/h),MP-7(��Sv/h),MP-8(��Sv/h),����,����(m/s),���J
2023/03/08,00:00,0.578,0.842,0.508,1.068,0.746,0.328,0.589,0.557,�쐼,4.7,��
2023/03/08,00:10,0.577,0.842,0.508,1.070,0.745,0.328,0.590,0.559,�쐼,4.5,��
2023/03/08,00:20,0.577,0.844,0.507,1.068,0.745,0.326,0.588,0.558,��쐼,2.8,��
2023/03/08,00:30,0.579,0.842,0.508,1.069,0.747,0.326,0.588,0.560,��쐼,2.3,��
2023/03/08,00:40,0.577,0.840,0.506,1.070,0.742,0.326,0.589,0.558,��쐼,2.0,��
2023/03/08,00:50,0.578,0.840,0.507,1.069,0.745,0.328,0.588,0.558,��쐼,2.0,��
2023/03/08,01:00,0.579,0.843,0.508,1.068,0.745,0.325,0.590,0.559,��,2.2,��
2023/03/08,01:10,0.577,0.842,0.507,1.067,0.741,0.326,0.587,0.558,��,1.8,��
2023/03/08,01:20,0.581,0.841,0.509,1.068,0.745,0.327,0.590,0.558,��,2.2,��
2023/03/08,01:30,0.579,0.841,0.508,1.068,0.747,0.327,0.589,0.558,��,3.6,��
2023/03/08,01:40,0.578,0.840,0.509,1.068,0.746,0.327,0.588,0.558,��쐼,3.9,��
2023/03/08,01:50,0.577,0.841,0.509,1.070,0.745,0.327,0.588,0.558,�쐼,4.5,��
2023/03/08,02:00,0.578,0.841,0.509,1.071,0.745,0.327,0.588,0.560,�쐼,4.2,��
2023/03/08,02:10,0.578,0.841,0.508,1.069,0.744,0.327,0.590,0.559,�쐼,4.2,��
2023/03/08,02:20,0.577,0.840,0.509,1.069,0.746,0.327,0.588,0.559,�쐼,3.9,��
2023/03/08,02:30,0.578,0.841,0.508,1.067,0.744,0.326,0.588,0.559,�쐼,3.3,��
2023/03/08,02:40,0.577,0.842,0.508,1.068,0.744,0.328,0.587,0.558,���쐼,2.5,��
2023/03/08,02:50,0.578,0.842,0.508,1.068,0.744,0.327,0.589,0.557,��,1.7,��
2023/03/08,03:00,0.578,0.842,0.508,1.069,0.744,0.326,0.589,0.558,��,2.3,��
2023/03/08,03:10,0.577,0.842,0.509,1.067,0.745,0.326,0.588,0.558,���쐼,2.0,��
2023/03/08,03:20,0.579,0.840,0.509,1.070,0.744,0.328,0.589,0.560,�쐼,2.3,��
2023/03/08,03:30,0.578,0.841,0.508,1.066,0.744,0.326,0.588,0.559,���쐼,3.4,��
2023/03/08,03:40,0.578,0.842,0.507,1.069,0.745,0.328,0.588,0.559,��쐼,3.5,��
2023/03/08,03:50,0.576,0.840,0.506,1.068,0.745,0.326,0.588,0.559,�쐼,3.4,��
2023/03/08,04:00,0.578,0.840,0.506,1.067,0.743,0.326,0.589,0.558,��쐼,4.7,��
2023/03/08,04:10,0.578,0.841,0.507,1.067,0.745,0.326,0.589,0.558,��쐼,5.7,��
2023/03/08,04:20,0.576,0.840,0.508,1.070,0.744,0.327,0.589,0.559,��쐼,5.9,��
2023/03/08,04:30,0.578,0.839,0.508,1.068,0.744,0.326,0.589,0.558,�쐼,5.7,��
2023/03/08,04:40,0.579,0.843,0.508,1.068,0.743,0.327,0.589,0.558,�쐼,4.7,��
2023/03/08,04:50,0.577,0.839,0.507,1.067,0.744,0.326,0.587,0.557,�쐼,4.6,��
2023/03/08,05:00,0.577,0.840,0.508,1.066,0.742,0.327,0.587,0.558,�쐼,3.7,��
2023/03/08,05:10,0.576,0.841,0.508,1.068,0.743,0.325,0.589,0.559,���쐼,3.7,��
2023/03/08,05:20,0.578,0.839,0.508,1.067,0.744,0.327,0.588,0.557,���쐼,4.6,��
2023/03/08,05:30,0.578,0.841,0.507,1.066,0.743,0.328,0.588,0.558,���쐼,4.9,��
2023/03/08,05:40,0.577,0.840,0.507,1.067,0.743,0.327,0.587,0.557,��,3.9,��
2023/03/08,05:50,0.577,0.839,0.508,1.068,0.741,0.327,0.588,0.556,���쐼,2.8,��
2023/03/08,06:00,0.578,0.843,0.509,1.070,0.742,0.327,0.588,0.558,�쐼,2.3,��
2023/03/08,06:10,0.577,0.839,0.506,1.068,0.743,0.325,0.588,0.559,���쐼,0.9,��
2023/03/08,06:20,0.577,0.840,0.507,1.067,0.743,0.326,0.589,0.558,���k��,0.6,��
2023/03/08,06:30,0.576,0.839,0.509,1.068,0.742,0.327,0.588,0.558,��,2.6,��
2023/03/08,06:40,0.578,0.841,0.508,1.069,0.742,0.326,0.588,0.558,���쐼,5.5,��
2023/03/08,06:50,0.577,0.840,0.509,1.066,0.743,0.327,0.588,0.557,���쐼,4.9,��
2023/03/08,07:00,0.577,0.841,0.508,1.067,0.743,0.326,0.588,0.558,���쐼,4.7,��
2023/03/08,07:10,0.577,0.841,0.508,1.066,0.744,0.327,0.588,0.558,��,5.2,��
2023/03/08,07:20,0.578,0.842,0.510,1.067,0.744,0.327,0.589,0.557,���쐼,4.8,��
2023/03/08,07:30,0.577,0.841,0.509,1.069,0.744,0.325,0.589,0.557,���쐼,4.4,��
2023/03/08,07:40,0.578,0.842,0.508,1.069,0.742,0.327,0.591,0.559,���쐼,4.2,��
2023/03/08,07:50,0.578,0.842,0.508,1.066,0.745,0.327,0.589,0.559,�쐼,4.1,��
2023/03/08,08:00,0.578,0.844,0.509,1.070,0.743,0.326,0.591,0.559,�쐼,4.2,��
2023/03/08,08:10,0.579,0.842,0.508,1.069,0.744,0.328,0.590,0.556,�쐼,4.5,��
2023/03/08,08:20,0.578,0.840,0.509,1.068,0.744,0.326,0.590,0.556,�쐼,4.7,��
2023/03/08,08:30,0.580,0.837,0.508,1.067,0.744,0.327,0.589,0.557,�쐼,3.8,��
2023/03/08,08:40,0.579,0.839,0.509,1.071,0.743,0.329,0.590,0.557,��쐼,3.2,��
2023/03/08,08:50,0.578,0.838,0.509,1.066,0.744,0.329,0.589,0.557,��쐼,3.6,��
2023/03/08,09:00,0.580,0.838,0.508,1.069,0.742,0.328,0.588,0.558,��쐼,3.5,��
2023/03/08,09:10,0.579,0.838,0.510,1.068,0.744,0.327,0.590,0.559,��,3.7,��
2023/03/08,09:20,0.580,0.840,0.510,1.068,0.745,0.329,0.588,0.559,��쓌,4.0,��
2023/03/08,09:30,0.577,0.838,0.509,1.069,0.745,0.327,0.588,0.558,��쓌,5.1,��
2023/03/08,09:40,0.577,0.838,0.510,1.069,0.746,0.328,0.589,0.558,��쓌,4.6,��
2023/03/08,09:50,0.578,0.836,0.508,1.070,0.746,0.329,0.589,0.558,��쓌,4.8,��
2023/03/08,10:00,0.576,0.840,0.511,1.068,0.744,0.327,0.589,0.557,��쓌,6.0,��
2023/03/08,10:10,0.577,0.839,0.510,1.070,0.744,0.327,0.590,0.557,��쓌,7.0,��
2023/03/08,10:20,0.577,0.841,0.508,1.072,0.745,0.326,0.588,0.557,��쓌,7.7,��
2023/03/08,10:30,0.579,0.840,0.511,1.069,0.745,0.328,0.589,0.556,��쓌,7.1,��
2023/03/08,10:40,-,0.840,0.508,1.072,0.744,0.327,0.589,0.556,��쓌,8.2,��
2023/03/08,10:50,0.576,0.842,0.509,1.071,0.743,0.327,0.589,0.556,��,7.4,��
2023/03/08,11:00,0.575,0.841,0.509,1.069,0.742,0.328,0.589,0.556,��쓌,7.6,��
2023/03/08,11:10,0.575,0.841,0.508,1.070,0.744,0.327,0.589,0.555,��,7.5,��
2023/03/08,11:20,0.575,0.843,0.508,1.069,0.742,0.328,0.588,0.554,��,5.8,��
2023/03/08,11:30,0.573,0.842,0.507,1.068,0.743,0.328,0.591,0.556,��,7.7,��
2023/03/08,11:40,0.575,0.840,0.507,1.070,0.745,0.326,0.590,0.556,��,7.8,��
2023/03/08,11:50,0.576,0.841,0.508,1.071,0.745,0.327,0.591,0.557,��쓌,7.2,��
2023/03/08,12:00,0.572,0.841,0.509,1.072,0.745,0.327,0.590,0.557,��쓌,7.5,��
2023/03/08,12:10,0.573,0.843,0.509,1.068,0.745,0.327,0.591,0.558,��,8.4,��
2023/03/08,12:20,0.569,0.841,0.509,1.069,0.743,0.328,0.591,0.556,��,8.9,��
2023/03/08,12:30,0.573,0.841,0.508,1.071,0.745,0.327,0.591,0.558,��,8.6,��
2023/03/08,12:40,0.573,0.841,0.508,1.071,0.745,0.326,0.590,0.557,��,8.9,��
2023/03/08,12:50,0.573,0.842,0.510,1.073,0.745,0.327,0.589,0.556,��쓌,8.3,��
2023/03/08,13:00,0.576,0.843,0.508,1.072,0.746,0.327,0.590,0.556,��,8.9,��
2023/03/08,13:10,0.578,0.842,0.510,1.071,0.746,0.327,0.590,0.557,��,7.7,��
2023/03/08,13:20,0.577,0.844,0.508,1.072,0.745,0.327,0.591,0.557,��,9.4,��
2023/03/08,13:30,0.577,0.843,0.509,1.072,0.746,0.328,0.591,0.558,��,9.4,��
2023/03/08,13:40,0.578,0.843,0.509,1.070,0.745,0.327,0.590,0.556,��쓌,7.4,��
2023/03/08,13:50,0.577,0.842,0.508,1.072,0.744,0.327,0.590,0.556,��,8.9,��
2023/03/08,14:00,0.578,0.845,0.511,1.074,0.748,0.327,0.592,0.556,��,9.6,��
2023/03/08,14:10,0.578,0.842,0.510,1.072,0.746,0.328,0.591,0.557,��,5.4,��
2023/03/08,14:20,0.579,0.841,0.508,1.071,0.747,0.328,0.591,0.556,��쓌,8.8,��
2023/03/08,14:30,0.577,0.844,0.509,1.073,0.746,0.327,0.590,0.557,��,8.8,��
2023/03/08,14:40,0.577,0.842,0.510,1.072,0.746,0.329,0.591,0.557,��쓌,9.7,��
2023/03/08,14:50,0.580,0.842,0.509,1.073,0.744,0.328,0.591,0.556,��,8.2,��
2023/03/08,15:00,0.580,0.844,0.508,1.073,0.746,0.328,0.591,0.558,��,11.7,��
2023/03/08,15:10,0.580,0.841,0.509,1.072,0.744,0.329,0.592,0.556,��,11.0,��
2023/03/08,15:20,0.579,0.842,0.509,1.072,0.745,0.328,0.591,0.556,��,9.4,��
2023/03/08,15:30,0.578,0.842,0.509,1.073,0.745,0.328,0.590,0.556,��쓌,9.4,��
2023/03/08,15:40,0.575,0.843,0.510,1.074,0.745,0.328,0.590,0.558,��,7.5,��
2023/03/08,15:50,0.576,0.842,0.509,1.074,0.745,0.328,0.590,0.557,��,8.6,��
2023/03/08,16:00,0.574,0.843,0.508,1.071,0.747,0.328,0.592,0.557,��,8.8,��
2023/03/08,16:10,0.576,0.845,0.509,1.073,0.747,0.328,0.593,0.556,��,7.3,��
2023/03/08,16:20,0.577,0.842,0.508,1.073,0.746,0.328,0.591,0.557,��,8.0,��
2023/03/08,16:30,0.578,0.843,0.510,1.071,0.746,0.327,0.591,0.557,��,8.1,��
2023/03/08,16:40,0.575,0.841,0.509,1.074,0.746,0.329,0.590,0.555,��,8.4,��
2023/03/08,16:50,0.572,0.842,0.507,1.070,0.745,0.329,0.590,0.558,��,9.7,��
2023/03/08,17:00,0.576,0.844,0.506,1.073,0.746,0.328,0.591,0.556,��,8.9,��
2023/03/08,17:10,0.579,0.846,0.508,1.072,0.746,0.329,0.590,0.558,��,8.5,��
2023/03/08,17:20,0.579,0.842,0.507,1.072,0.744,0.329,0.590,0.560,��,8.8,��
2023/03/08,17:30,0.580,0.843,0.506,1.072,0.744,0.329,0.590,0.559,��,8.7,��
2023/03/08,17:40,0.578,0.844,0.508,1.073,0.746,0.327,0.591,0.560,��,9.0,��
2023/03/08,17:50,0.579,0.843,0.508,1.072,0.745,0.328,0.592,0.560,��,7.8,��
2023/03/08,18:00,0.579,0.847,0.510,1.072,0.747,0.329,0.592,0.558,��,7.9,��
2023/03/08,18:10,0.579,0.846,0.510,1.069,0.747,0.330,0.592,0.559,��,7.8,��
2023/03/08,18:20,0.580,0.846,0.511,1.073,0.748,0.330,0.591,0.559,��,7.3,��
2023/03/08,18:30,0.579,0.846,0.510,1.069,0.750,0.328,0.591,0.559,��쐼,6.4,��
2023/03/08,18:40,0.582,0.845,0.511,1.073,0.747,0.330,0.592,0.560,��쐼,4.8,��
2023/03/08,18:50,0.581,0.844,0.511,1.070,0.747,0.328,0.591,0.558,�쐼,4.4,��
2023/03/08,19:00,0.581,0.844,0.511,1.073,0.746,0.330,0.593,0.558,���쐼,4.4,��
2023/03/08,19:10,0.581,0.845,0.511,1.072,0.747,0.328,0.592,0.558,��,5.2,��
2023/03/08,19:20,0.582,0.846,0.508,1.070,0.746,0.330,0.591,0.560,��,6.3,��
2023/03/08,19:30,0.581,0.847,0.512,1.072,0.746,0.330,0.591,0.559,��,6.0,��
2023/03/08,19:40,0.581,0.844,0.510,1.071,0.749,0.331,0.592,0.559,��,5.5,��
2023/03/08,19:50,0.582,0.847,0.511,1.072,0.748,0.329,0.591,0.558,��,6.5,��
2023/03/08,20:00,0.581,0.846,0.510,1.072,0.747,0.329,0.591,0.558,��,6.6,��
2023/03/08,20:10,0.581,0.846,0.511,1.072,0.747,0.330,0.593,0.558,��,6.7,��
2023/03/08,20:20,0.581,0.846,0.512,1.072,0.746,0.328,0.592,0.558,��,5.8,��
2023/03/08,20:30,0.581,0.843,0.511,1.072,0.745,0.329,0.593,0.557,���쐼,5.3,��
2023/03/08,20:40,0.580,0.846,0.510,1.071,0.746,0.329,0.591,0.560,���쐼,5.5,��
2023/03/08,20:50,0.583,0.845,0.511,1.073,0.747,0.329,0.592,0.558,���쐼,6.2,��
2023/03/08,21:00,0.582,0.846,0.510,1.074,0.746,0.330,0.592,0.559,���쐼,6.5,��
2023/03/08,21:10,0.581,0.845,0.512,1.071,0.747,0.328,0.591,0.559,���쐼,5.9,��
2023/03/08,21:20,0.581,0.845,0.511,1.073,0.747,0.329,0.592,0.558,��,6.4,��
2023/03/08,21:30,0.582,0.846,0.510,1.072,0.747,0.328,0.592,0.558,���쐼,6.0,��
2023/03/08,21:40,0.579,0.847,0.512,1.073,0.747,0.330,0.592,0.557,���쐼,6.6,��
2023/03/08,21:50,0.582,0.846,0.509,1.072,0.747,0.329,0.591,0.557,��,6.5,��
2023/03/08,22:00,0.580,0.844,0.509,1.071,0.745,0.328,0.589,0.557,���쐼,5.7,��
2023/03/08,22:10,0.581,0.845,0.511,1.069,0.748,0.328,0.592,0.558,�쐼,5.8,��
2023/03/08,22:20,0.581,0.845,0.510,1.071,0.746,0.329,0.591,0.558,�쐼,8.0,��
2023/03/08,22:30,0.580,0.845,0.510,1.070,0.747,0.329,0.593,0.559,�쐼,8.2,��
2023/03/08,22:40,0.581,0.845,0.509,1.074,0.745,0.327,0.592,0.558,�쐼,8.0,��
2023/03/08,22:50,0.580,0.844,0.509,1.072,0.744,0.329,0.592,0.558,���쐼,7.3,��
2023/03/08,23:00,0.580,0.845,0.510,1.072,0.749,0.329,0.591,0.558,�쐼,6.8,��
2023/03/08,23:10,0.581,0.846,0.510,1.074,0.747,0.330,0.591,0.558,�쐼,7.0,��
2023/03/08,23:20,0.580,0.846,0.510,1.071,0.746,0.328,0.591,0.559,�쐼,6.7,��
2023/03/08,23:30,0.580,0.843,0.510,1.071,0.747,0.329,0.591,0.558,�쐼,6.2,��
2023/03/08,23:40,0.580,0.844,0.510,1.071,0.747,0.329,0.590,0.557,�쐼,6.2,��
2023/03/08,23:50,0.581,0.846,0.510,1.071,0.746,0.329,0.592,0.560,�쐼,6.2,��
